Total_Precipitation_Accumulation
0.20 0.37 0.64 0.76 1.03 1.54 1.55 1.28 0.83 0.58 0.57 0.65 0.61 0.59 0.75 0.90 1.24 2.27 2.39 2.18 1.46 1.31 1.56 1.61 1.61 1.41 1.29 1.30 1.39 1.31 1.20 1.15 1.25 1.31 1.44 1.56 1.68 1.64 1.62 1.78 2.05 2.28 2.42 2.52 2.59 2.56 2.55 2.45 2.30
0.30 0.46 0.59 0.69 1.23 1.70 1.55 1.21 0.73 0.57 0.47 0.54 0.61 0.55 0.74 0.86 0.89 1.43 1.87 1.71 1.10 0.96 1.17 1.19 1.32 1.29 1.18 1.08 1.15 1.22 1.13 1.14 1.23 1.43 1.66 1.79 1.91 1.89 1.91 2.05 2.19 2.36 2.39 2.41 2.40 2.37 2.30 2.24 2.14
0.26 0.39 0.53 0.67 1.02 1.21 1.08 0.82 0.47 0.40 0.34 0.40 0.53 0.48 0.71 1.12 1.02 1.28 1.49 1.29 0.95 0.87 0.96 1.11 1.07 0.98 1.04 1.05 1.08 1.19 1.22 1.20 1.21 1.39 1.59 1.81 2.10 2.17 2.29 2.38 2.49 2.52 2.37 2.25 2.21 2.19 2.04 2.01 1.97
0.28 0.36 0.36 0.45 0.64 0.68 0.54 0.50 0.35 0.33 0.33 0.32 0.43 0.61 0.96 1.03 0.96 1.11 1.13 1.03 0.77 0.74 0.77 0.85 1.01 0.96 0.98 1.03 1.02 1.05 1.17 1.26 1.33 1.41 1.60 1.81 2.13 2.38 2.59 2.56 2.56 2.48 2.27 2.18 2.09 2.00 1.91 1.96 2.01
0.30 0.29 0.31 0.34 0.40 0.48 0.44 0.39 0.31 0.33 0.30 0.35 0.46 0.85 1.38 1.26 0.92 0.91 0.94 0.86 0.72 0.64 0.72 0.78 0.91 0.95 0.95 0.94 1.00 1.03 1.05 1.24 1.36 1.38 1.53 1.74 1.99 2.38 2.49 2.46 2.37 2.19 2.10 2.05 2.02 1.97 1.89 1.90 1.97
0.18 0.17 0.25 0.24 0.28 0.35 0.36 0.31 0.29 0.26 0.29 0.41 0.59 0.91 1.41 1.38 1.17 1.10 1.11 0.97 0.90 0.71 0.64 0.80 0.91 0.93 0.89 0.85 0.91 0.96 1.05 1.21 1.37 1.41 1.48 1.64 1.86 2.11 2.16 2.13 2.07 1.93 1.97 1.96 1.94 1.93 1.82 1.73 1.90
0.15 0.11 0.14 0.15 0.20 0.26 0.29 0.26 0.26 0.26 0.34 0.51 0.68 1.04 1.37 1.58 1.40 1.23 1.34 1.41 1.19 0.93 0.82 0.85 0.85 0.81 0.82 0.89 0.92 1.02 1.19 1.35 1.46 1.49 1.53 1.75 1.88 1.94 1.84 1.89 1.88 1.85 1.88 1.88 1.78 1.70 1.61 1.55 1.73
0.08 0.08 0.11 0.10 0.13 0.22 0.21 0.21 0.20 0.25 0.39 0.47 0.64 1.08 1.44 1.39 1.37 1.38 1.53 1.66 1.58 1.21 1.07 0.95 0.91 0.91 0.83 0.87 1.06 1.17 1.32 1.51 1.61 1.65 1.78 1.96 2.01 1.92 1.93 1.85 1.91 1.93 2.01 1.96 1.86 1.70 1.60 1.60 1.67
0.05 0.06 0.07 0.07 0.08 0.15 0.14 0.17 0.21 0.19 0.24 0.41 0.60 0.90 1.02 0.97 1.12 1.34 1.55 1.73 1.91 1.67 1.32 1.15 1.04 1.07 1.09 0.98 1.06 1.31 1.47 1.62 1.74 2.02 2.27 2.38 2.30 2.11 2.27 2.11 2.26 2.26 2.27 2.23 2.18 2.07 1.92 1.78 1.67
0.03 0.03 0.04 0.04 0.04 0.06 0.10 0.15 0.20 0.18 0.37 0.64 0.78 0.88 0.81 0.97 1.09 1.33 1.51 1.63 1.78 1.89 1.45 1.33 1.17 1.10 1.14 1.26 1.55 1.73 1.59 1.80 2.11 2.43 2.64 2.82 2.71 2.59 2.24 2.49 2.78 2.93 3.07 2.97 2.84 2.68 2.26 1.84 1.69
0.01 0.03 0.03 0.03 0.02 0.03 0.08 0.09 0.15 0.19 0.52 0.99 1.14 1.16 1.08 1.05 1.19 1.46 1.73 1.81 1.68 1.75 1.52 1.46 1.47 1.48 1.36 1.51 1.74 1.95 1.99 2.18 2.35 2.47 2.67 2.85 2.53 2.45 2.50 2.76 3.08 3.23 3.30 3.13 3.14 3.06 2.60 2.34 2.27
0.01 0.01 0.02 0.02 0.02 0.04 0.07 0.09 0.13 0.22 0.51 0.80 1.08 1.06 1.21 1.19 1.30 1.57 1.92 2.11 2.10 2.23 2.00 1.85 1.88 1.82 1.76 1.74 1.92 2.08 2.12 2.20 2.35 2.52 2.51 2.62 2.73 2.80 2.90 3.18 3.16 3.27 3.36 3.66 3.28 3.40 3.13 2.79 2.59
0.01 0.01 0.02 0.03 0.03 0.04 0.08 0.16 0.16 0.26 0.38 0.58 0.83 0.85 0.93 1.24 1.62 2.03 2.42 2.44 2.57 2.80 2.78 2.52 2.27 2.13 2.13 2.26 2.28 2.18 2.28 2.39 2.50 2.67 2.65 2.64 2.91 3.07 3.15 3.17 3.31 3.07 3.11 3.52 3.64 3.36 3.45 3.40 3.12
0.01 0.01 0.02 0.04 0.04 0.06 0.10 0.22 0.28 0.37 0.46 0.52 0.78 1.02 1.07 1.43 1.78 2.36 3.04 2.96 2.76 2.98 3.08 2.86 2.69 2.56 2.56 2.80 2.88 2.74 2.54 2.76 2.80 2.78 2.73 2.81 3.05 3.40 3.57 3.46 3.54 3.30 3.09 3.29 3.48 3.39 3.96 3.75 3.54
0.02 0.03 0.05 0.07 0.08 0.12 0.17 0.38 0.52 0.53 0.50 0.58 0.88 1.21 1.45 1.60 1.94 2.30 2.71 3.05 3.20 3.30 3.22 3.19 3.15 3.07 3.17 3.27 3.19 2.94 2.86 2.76 2.83 2.91 3.00 3.01 3.03 3.39 3.62 3.81 3.74 3.49 3.24 3.39 3.44 3.62 3.86 3.57 3.37
0.03 0.06 0.10 0.13 0.14 0.15 0.24 0.63 0.64 0.53 0.53 0.84 1.04 1.38 1.71 1.78 2.04 2.45 2.82 3.36 3.61 3.64 3.64 3.65 3.47 3.54 3.68 3.73 3.57 3.35 3.20 3.04 2.87 2.83 3.02 3.06 3.12 3.37 3.59 3.56 3.48 3.59 3.51 3.66 3.87 3.93 3.92 3.76 3.58
0.08 0.10 0.15 0.15 0.18 0.16 0.22 0.47 0.61 0.57 0.76 1.03 1.27 1.59 1.89 2.15 2.60 3.10 3.37 3.48 3.83 4.15 4.32 4.35 4.27 4.14 4.07 4.01 3.90 3.91 3.87 3.63 3.30 3.14 3.17 3.17 3.04 3.14 3.42 3.44 3.56 3.66 3.67 3.70 3.40 3.89 3.84 3.86 3.66
0.11 0.11 0.15 0.19 0.17 0.19 0.27 0.43 0.53 0.61 0.85 1.26 1.64 1.88 2.15 2.55 3.06 3.43 3.70 4.04 4.18 4.45 4.96 4.93 4.77 4.73 4.73 4.66 4.34 4.33 4.09 3.80 3.66 3.56 3.66 3.46 3.27 3.22 3.46 3.46 3.57 3.61 3.72 3.77 3.71 3.95 3.86 3.67 3.59
0.09 0.11 0.16 0.20 0.17 0.21 0.37 0.56 0.61 0.78 1.08 1.40 1.74 1.98 2.32 2.66 3.03 3.47 3.55 3.81 4.14 4.74 5.22 5.45 5.48 5.32 5.06 4.69 4.28 4.10 4.04 4.00 3.84 3.68 3.47 3.34 3.27 3.34 3.69 3.56 3.87 3.78 3.57 3.55 3.62 3.85 3.73 3.45 3.47
0.09 0.12 0.17 0.19 0.17 0.20 0.40 0.59 0.69 1.03 1.35 1.41 1.58 1.72 1.91 2.35 2.70 3.04 3.24 3.33 3.76 4.35 4.80 4.97 4.73 4.63 4.48 4.25 4.14 4.11 4.31 4.03 3.82 3.69 3.50 3.21 3.15 3.26 3.29 3.60 3.51 3.54 3.65 3.53 3.53 3.77 3.60 3.16 3.28
0.08 0.09 0.14 0.20 0.20 0.27 0.41 0.77 0.97 1.19 1.33 1.35 1.45 1.60 1.71 1.99 2.31 2.64 2.79 2.94 3.19 3.32 3.60 3.80 3.94 3.87 3.77 3.75 3.73 3.76 4.00 3.83 3.69 3.59 3.48 3.09 2.89 2.86 2.99 3.09 3.19 3.53 3.45 3.49 3.56 3.52 3.45 3.17 3.10
0.09 0.09 0.09 0.14 0.22 0.36 0.50 1.07 1.32 1.27 1.31 1.43 1.43 1.41 1.65 1.95 1.94 2.06 2.31 2.48 2.77 2.96 3.16 3.24 3.27 3.37 3.39 3.47 3.38 3.22 3.17 3.17 3.17 3.24 3.17 3.08 2.88 2.76 2.79 2.86 2.92 3.03 2.94 3.10 2.84 2.99 3.27 3.40 3.11
0.07 0.07 0.09 0.17 0.27 0.38 0.49 0.82 1.23 1.56 1.62 1.43 1.36 1.25 1.45 1.59 1.50 1.49 1.69 1.84 2.12 2.37 2.61 2.74 2.84 2.94 3.08 3.14 3.09 3.06 2.88 2.91 2.99 3.05 3.05 2.99 2.92 2.85 2.81 2.80 2.82 2.74 2.61 2.73 2.75 2.97 3.00 3.01 2.99
0.06 0.09 0.16 0.30 0.49 0.73 0.62 0.74 1.16 1.52 1.78 1.52 1.30 1.20 1.30 1.28 1.25 1.37 1.52 1.63 1.80 2.10 2.30 2.40 2.52 2.57 2.69 2.75 2.85 2.91 2.88 2.84 2.84 2.86 2.86 2.84 2.84 2.72 2.64 2.61 2.66 2.59 2.55 2.62 2.71 2.84 2.77 2.81 2.96
0.07 0.16 0.51 0.89 1.18 1.19 0.79 0.83 1.17 1.17 1.21 1.23 1.19 1.23 1.24 1.18 1.14 1.14 1.23 1.38 1.58 1.82 2.00 2.05 2.15 2.23 2.23 2.28 2.43 2.57 2.63 2.68 2.55 2.50 2.53 2.54 2.38 2.27 2.33 2.27 2.41 2.41 2.43 2.47 2.60 2.68 2.65 2.79 2.94
0.12 0.17 0.56 0.88 0.92 1.01 0.89 1.15 1.47 1.17 1.08 1.01 1.09 1.19 1.19 1.05 0.98 1.01 1.11 1.17 1.26 1.46 1.69 1.74 1.83 1.94 2.09 2.12 2.18 2.31 2.32 2.33 2.21 2.29 2.30 2.25 2.04 1.96 2.14 2.27 2.31 2.29 2.29 2.35 2.61 2.45 2.47 2.66 2.69
0.16 0.18 0.25 0.48 0.57 0.76 0.99 1.27 1.44 1.12 1.09 1.19 1.31 1.29 1.24 0.99 0.84 0.86 0.87 0.91 0.94 1.05 1.23 1.36 1.62 1.77 1.87 1.96 2.05 2.06 2.03 2.09 2.04 2.11 2.27 2.17 2.14 2.00 2.06 2.11 2.21 2.29 2.41 2.54 2.66 2.47 2.56 2.78 2.66
0.16 0.16 0.20 0.39 0.61 0.81 0.94 1.31 1.62 1.57 1.40 1.34 1.40 1.24 0.97 0.80 0.70 0.65 0.66 0.66 0.75 0.87 0.98 1.14 1.34 1.44 1.55 1.74 1.87 1.77 1.96 2.04 2.03 2.03 1.96 2.00 2.08 2.06 1.94 1.90 1.95 2.01 2.10 2.26 2.41 2.31 2.46 2.70 2.65
0.19 0.22 0.29 0.41 0.45 0.69 1.06 1.28 1.23 1.28 1.21 1.25 1.24 1.06 0.82 0.68 0.62 0.63 0.63 0.66 0.72 0.79 0.94 1.12 1.33 1.48 1.48 1.58 1.71 1.76 1.86 1.99 2.02 1.94 1.84 1.88 1.95 2.00 1.93 1.89 1.87 1.84 1.81 1.90 2.05 2.05 2.27 2.31 2.30
0.17 0.20 0.28 0.43 0.42 0.46 0.73 0.96 0.70 0.75 0.77 0.85 0.91 0.79 0.72 0.69 0.64 0.71 0.76 0.77 0.78 0.87 1.02 1.18 1.31 1.47 1.54 1.66 1.85 1.99 1.95 1.94 1.98 1.94 1.84 1.75 1.70 1.78 1.87 1.90 1.81 1.68 1.71 1.85 1.86 1.91 2.14 2.23 2.19